Flag for United Kingdom

Past Weather in Edinburgh, Scotland, United Kingdom — February 2019

Now
54 °F

Light rain. Partly sunny.


Feels Like: 53 °F
Forecast: 53 / 49 °F
Wind: 3 mph from Northeast

Location: Edinburgh Airport
Current Time: Oct 20, 2020 at 4:39:26 pm
Latest Report: Oct 20, 2020 at 4:20 pm
Visibility: 6 mi
Pressure29.33 "Hg
Humidity: 94%
Dew Point: 52 °F
Location of EdinburghLocation

February 2019 Weather in Edinburgh — Graph

°F

High & Low Weather Summary for February 2019

 TemperatureHumidityPressure
High61 °F (Feb 22, 1:50 pm)100% (Feb 1, 1:20 am)30.57 "Hg (Feb 1, 1:20 am)
Low16 °F (Feb 1, 4:50 am)45% (Feb 22, 2:50 pm)28.56 "Hg (Feb 9, 2:20 am)
Average43 °F84%29.90 "Hg
* Reported Feb 1 12:50 am — Feb 28 11:50 pm, Edinburgh. Weather by CustomWeather, © 2020

Note: Actual official high and low records may vary slightly from our data, if they occured in-between our weather recording intervals... More about our weather records

Edinburgh Weather History for February 1, 2019

Scroll right to see more
 ConditionsComfort  
Time TempWeatherWind HumidityBarometerVisibility
12:50 am
Fri, Feb 1
19 °FClear.1 mph93%29.39 "Hg4 mi
1:20 am18 °FClear.1 mph100%29.39 "Hg4 mi
1:50 am18 °FClear.2 mph93%29.39 "Hg5 mi
2:20 am18 °FClear.3 mph93%29.39 "Hg5 mi
2:50 am18 °FClear.2 mph100%29.39 "Hg4 mi
3:20 am19 °FClear.2 mph93%29.39 "Hg4 mi
3:50 am18 °FClear.2 mph93%29.39 "Hg4 mi
4:20 am18 °FClear.1 mph93%29.39 "Hg4 mi
4:50 am16 °FIce fog.1 mph100%29.42 "Hg3 mi
5:20 am18 °FHaze.3 mph93%29.42 "Hg3 mi
5:50 am16 °FClear.No wind93%29.42 "Hg4 mi
6:20 am16 °FClear.No wind93%29.42 "Hg4 mi
6:50 am18 °FClear.2 mph100%29.42 "Hg4 mi
7:20 am18 °FClear.2 mph100%29.45 "Hg5 mi
7:50 am19 °FPassing clouds.3 mph93%29.45 "HgN/A
8:20 am18 °FPassing clouds.5 mph93%29.45 "HgN/A
8:50 am19 °FSunny.2 mph93%29.45 "Hg10 mi
9:20 am21 °FSunny.2 mph100%29.47 "Hg10 mi
9:50 am23 °FSunny.2 mph100%29.47 "Hg10 mi
10:20 am27 °FSunny.5 mph100%29.47 "Hg10 mi
10:50 am28 °FSunny.5 mph100%29.47 "Hg10 mi
11:20 am30 °FSunny.5 mph100%29.47 "Hg10 mi
11:50 am32 °FSunny.6 mph93%29.47 "Hg10 mi
12:20 pm34 °FSunny.6 mph93%29.47 "Hg10 mi
12:50 pm36 °FSunny.6 mph87%29.47 "Hg10 mi
1:20 pm36 °FSunny.6 mph81%29.47 "Hg10 mi
1:50 pm37 °FPassing clouds.5 mph70%29.47 "HgN/A
2:20 pm39 °FPassing clouds.2 mph65%29.47 "HgN/A
2:50 pm36 °FScattered clouds.5 mph75%29.47 "HgN/A
3:20 pm36 °FScattered clouds.5 mph75%29.47 "HgN/A
3:50 pm36 °FScattered clouds.6 mph75%29.47 "HgN/A
4:20 pm34 °FScattered clouds.6 mph81%29.50 "HgN/A
4:50 pm34 °FPassing clouds.6 mph81%29.50 "HgN/A
5:20 pm32 °FPassing clouds.5 mph87%29.50 "HgN/A
5:50 pm32 °FPassing clouds.6 mph87%29.50 "HgN/A
6:20 pm30 °FPassing clouds.6 mph86%29.53 "HgN/A
6:50 pm32 °FLight snow. Passing clouds.6 mph87%29.53 "HgN/A
7:20 pm32 °FLight rain. Passing clouds.6 mph93%29.53 "HgN/A
7:50 pm32 °FMostly cloudy.5 mph100%29.56 "HgN/A
8:20 pm34 °FSnow showers. Passing clouds.3 mph93%29.56 "Hg2 mi
8:50 pm34 °FLight rain. Passing clouds.2 mph93%29.56 "Hg6 mi
9:20 pm34 °FPassing clouds.5 mph93%29.56 "Hg6 mi
9:50 pm32 °FPassing clouds.3 mph100%29.56 "HgN/A
10:20 pm34 °FPartly cloudy.5 mph100%29.59 "HgN/A
10:50 pm34 °FPassing clouds.2 mph93%29.59 "HgN/A
11:20 pm36 °FPassing clouds.6 mph87%29.59 "HgN/A
11:50 pm36 °FLight rain. Passing clouds.7 mph81%29.62 "HgN/A
Weather by CustomWeather, © 2020

See weather overview